| time (UTC) | temp F | wind direction | speed MPH | gust MPH | rain 1hr in | rain 24hr in | rain mn in | humidity % | barometer mb |
| 20260508133042 | 83 | 315 | 7.0 | 13.0 | 0.00 | 0.00 | 0.00 | 37 | 1000.8 |
| 20260508130042 | 86 | 315 | 6.0 | 10.0 | 0.00 | 0.00 | 0.00 | 21 | 1000.8 |
| 20260508123043 | 86 | 315 | 6.0 | 14.0 | 0.00 | 0.00 | 0.00 | 22 | 1001.0 |
| 20260508120042 | 88 | 315 | 5.0 | 12.0 | 0.00 | 0.00 | 0.00 | 27 | 1001.1 |
| 20260508113042 | 86 | 315 | 5.0 | 11.0 | 0.00 | 0.00 | 0.00 | 22 | 1001.2 |
| 20260508110041 | 86 | 293 | 3.0 | 8.0 | 0.00 | 0.00 | 0.00 | 30 | 1001.3 |
| 20260508103042 | 86 | 23 | 3.0 | 9.0 | 0.00 | 0.00 | 0.00 | 28 | 1001.4 |
| 20260508100046 | 85 | 90 | 4.0 | 8.0 | 0.00 | 0.00 | 0.00 | 27 | 1001.5 |
| 20260508093043 | 84 | 315 | 3.0 | 9.0 | 0.00 | 0.00 | 0.00 | 28 | 1001.6 |
| 20260508090042 | 85 | 293 | 2.0 | 6.0 | 0.00 | 0.00 | 0.00 | 33 | 1001.7 |
| 20260508083413 | 83 | 270 | 2.0 | 6.0 | 0.00 | 0.00 | 0.00 | 41 | 1001.9 |
| 20260508080041 | 81 | 270 | 2.0 | 6.0 | 0.00 | 0.00 | 0.00 | 37 | 1002.0 |
| 20260508073042 | 79 | 293 | 3.0 | 6.0 | 0.00 | 0.00 | 0.00 | 45 | 1002.0 |
| 20260508070041 | 78 | 90 | 2.0 | 6.0 | 0.00 | 0.00 | 0.00 | 41 | 1001.9 |
| 20260508063044 | 76 | 45 | 3.0 | 8.0 | 0.00 | 0.00 | 0.00 | 44 | 1001.9 |
| 20260508053041 | 71 | 293 | 2.0 | 6.0 | 0.00 | 0.01 | 0.00 | 58 | 1002.0 |
| 20260508050041 | 69 | 315 | 3.0 | 6.0 | 0.00 | 0.01 | 0.00 | 60 | 1002.0 |
| 20260508043041 | 67 | 315 | 2.0 | 5.0 | 0.00 | 0.01 | 0.00 | 65 | 1001.9 |
| 20260508040433 | 65 | 315 | 1.0 | 4.0 | 0.00 | 0.01 | 0.00 | 69 | 1001.8 |
| 20260508033041 | 63 | 270 | 1.0 | 4.0 | 0.00 | 0.01 | 0.00 | 73 | 1001.6 |
| 20260508030041 | 60 | 158 | 2.0 | 6.0 | 0.00 | 0.01 | 0.00 | 79 | 1001.4 |
| 20260508023041 | 57 | 23 | 1.0 | 6.0 | 0.00 | 0.01 | 0.00 | 81 | 1001.2 |
| 20260508020041 | 57 | 225 | 2.0 | 5.0 | 0.00 | 0.01 | 0.00 | 76 | 1000.9 |
| 20260508013041 | 58 | 270 | 3.0 | 7.0 | 0.00 | 0.01 | 0.00 | 74 | 1001.0 |
| 20260508010041 | 60 | 225 | 3.0 | 12.0 | 0.00 | 0.01 | 0.00 | 72 | 1001.1 |
| 20260508003041 | 61 | 248 | 9.0 | 15.0 | 0.00 | 0.01 | 0.00 | 72 | 1001.0 |
| 20260508000041 | 59 | 0 | 2.0 | 6.0 | 0.00 | 0.01 | 0.00 | 81 | 1001.5 |
| 20260507233040 | 59 | 248 | 3.0 | 8.0 | 0.00 | 0.01 | 0.00 | 78 | 1001.6 |
| 20260507230040 | 59 | 90 | 2.0 | 7.0 | 0.00 | 0.01 | 0.00 | 80 | 1002.2 |
| 20260507223040 | 55 | 0.0 | 2.0 | 0.00 | 0.01 | 0.00 | 84 | 1001.4 | |
| 20260507220041 | 56 | 0.0 | 4.0 | 0.00 | 0.01 | 0.00 | 78 | 1001.3 | |
| 20260507213041 | 57 | 0.0 | 1.0 | 0.00 | 0.01 | 0.00 | 77 | 1001.3 | |
| 20260507210041 | 59 | 0.0 | 2.0 | 0.00 | 0.01 | 0.01 | 76 | 1001.4 | |
| 20260507203101 | 61 | 315 | 2.0 | 5.0 | 0.00 | 0.01 | 0.01 | 73 | 1001.5 |
| 20260507200041 | 59 | 293 | 2.0 | 6.0 | 0.00 | 0.01 | 0.01 | 76 | 1001.6 |
| 20260507193045 | 61 | 315 | 2.0 | 5.0 | 0.00 | 0.01 | 0.01 | 72 | 1001.3 |
| 20260507190040 | 61 | 315 | 1.0 | 5.0 | 0.00 | 0.01 | 0.01 | 73 | 1001.1 |
| 20260507183041 | 62 | 338 | 2.0 | 6.0 | 0.00 | 0.01 | 0.01 | 73 | 1001.1 |
| 20260507180412 | 62 | 270 | 1.0 | 5.0 | 0.00 | 0.01 | 0.01 | 74 | 1001.2 |
| 20260507173040 | 62 | 270 | 1.0 | 4.0 | 0.00 | 0.01 | 0.01 | 74 | 1001.1 |
| 20260507170040 | 63 | 270 | 2.0 | 6.0 | 0.00 | 0.01 | 0.01 | 74 | 1000.9 |
| 20260507163041 | 64 | 270 | 3.0 | 9.0 | 0.00 | 0.01 | 0.01 | 73 | 1000.6 |
| 20260507160041 | 67 | 248 | 6.0 | 13.0 | 0.00 | 0.01 | 0.01 | 67 | 1000.4 |
| 20260507153101 | 66 | 270 | 3.0 | 10.0 | 0.00 | 0.01 | 0.01 | 70 | 1000.5 |
| 20260507150040 | 70 | 248 | 3.0 | 8.0 | 0.00 | 0.01 | 0.01 | 59 | 1001.3 |
| 20260507143041 | 74 | 135 | 5.0 | 16.0 | 0.00 | 0.01 | 0.01 | 46 | 1000.6 |